Regional Weather Roundup
Issued by NWS

Home | Current Version | Previous Version | Text Only | Print | Product List | Glossary Off
Versions: 1 2 3 4 5 6 7 8 9 10 11 12 13 14 15 16 17 18 19 20 21 22 23 24 25 26 27 28 29 30 31 32 33 34 35 36 37 38 39 40 41 42 43 44 45 46 47 48 49 50

000
ASUS45 KCYS 060910
RWRWY

WYOMING REGIONAL WEATHER ROUNDUP
NATIONAL WEATHER SERVICE CHEYENNE WY
200 AM MST TUE DEC 06 2016

NOTE:  "FAIR" INDICATES FEW OR NO CLOUDS BELOW 12,000 FEET
WITH NO SIGNIFICANT WEATHER AND/OR OBSTRUCTIONS TO VISIBILITY.

WYZ001-061000-
YELLOWSTONE NATIONAL PARK

CITY           SKY/WX    TMP DP  RH WIND       PRES   REMARKS
LK YELLOWSTONE   N/A      1  -3  83 W3        29.81F
W YELLOWSTONE  NOT AVBL

$$
WYZ002>013-054>058-071-098>099-061000-
NORTHERN WYOMING

CITY           SKY/WX    TMP DP  RH WIND       PRES   REMARKS
JACKSON        FAIR     -15 -18  84 N9        29.91S WCI -33
CODY           MOCLDY     1  -4  79 NW5       29.93R WCI  -9
GREYBULL       FAIR      11   6  81 S5        29.98F WCI   3
WORLAND        FAIR       7   2  80 SE6       29.95F WCI  -3
SHERIDAN       LGT SNOW  11   6  81 CALM      29.99S
BUFFALO        FAIR       4  -3  73 W8        29.92S WCI  -9
GILLETTE       FAIR      -1  -5  82 VRB3      29.95S
HULETT         CLOUDY     9   1  72 MISG      29.96R
NEWCASTLE      FAIR       5   1  85 N9        29.96R WCI  -9

$$
WYZ014>020-022>026-101>103-061000-
CENTRAL WYOMING

CITY           SKY/WX    TMP DP  RH WIND       PRES   REMARKS
BIG PINEY      FAIR     -18 -21  87 CALM      29.90F
PINEDALE       FAIR     -18 -24  76 W7        29.91S WCI -35
DUBOIS         FAIR      -4 -11  71 MISG      29.80F
LANDER         FAIR       6 -11  45 SW5       29.89F WCI  -3
RIVERTON       FAIR       5  -5  63 W7        29.90F WCI  -7
CASPER         FAIR      -2  -6  83 SW13      29.93S WCI -20
DOUGLAS        FAIR      -2  -6  83 N3        29.94S

$$
WYZ021-027>030-104>119-061000-
SOUTHERN WYOMING

CITY           SKY/WX    TMP DP  RH WIND       PRES   REMARKS
EVANSTON       FAIR       6 -16  35 SE5       29.86F WCI  -3
KEMMERER         N/A     -6 -13  71 NW10      29.87S WCI -23
FORT BRIDGER   FAIR       1 -17  43 E6        29.91S WCI -11
ROCK SPRINGS   FAIR       3  -9  57 CALM      29.90F
DIXON          FAIR      -3 -11  68 E3        29.97F
RAWLINS        FAIR       5  -9  52 W12       29.89S WCI -11
SARATOGA       FAIR       0 -11  60 N3        29.89S
LARAMIE        FAIR      -1 -11  62 W10       29.85R WCI -17
CHEYENNE       FAIR      10  -8  44 W18       29.87F WCI  -8
TORRINGTON     FAIR       9   3  77 W10       29.97R WCI  -5
PINE BLUFFS    FAIR       9   3  78 N6        29.95S WCI  -1

$$



USA.gov is the U.S. government's official web portal to all federal, state and local government web resources and services.